{"data":{"norad_id":54127,"intl_designator":"2022-138Q","name":"ONEWEB-0509","alt_names":[],"object_type":"PAYLOAD","status":"ACTIVE","operator":null,"country":"UK","launch_date":"2022-10-22","launch_site_code":"SRILR","launch_vehicle":null,"mission":null,"orbit_class":"UNKNOWN","rcs_meters":null,"size_class":null,"mass_kg":null,"dimensions":null,"purposes":["comms"],"wikipedia_slug":null,"has_3d_model":false,"image_url":null,"decayed_at":null,"tle_current":{"epoch":"2026-05-25T04:41:11.419584Z","epoch_age_seconds":52090,"freshness":"FRESH","line1":"1 54127U 22138Q   26145.19527106  .00000068  00000+0  13757-3 0  9993","line2":"2 54127  87.9161 309.5464 0001705  90.5483 269.5846 13.19726105173776","mean_motion":13.19726105,"eccentricity":0.0001705,"inclination_deg":87.9161,"raan_deg":309.5464,"arg_perigee_deg":90.5483,"mean_anomaly_deg":269.5846,"bstar":0.00013757,"rev_number":17377,"period_min":109.11354973917,"perigee_km":1184.4766843317,"apogee_km":1187.0559753672,"semimajor_km":7563.9033298495,"source":"CELESTRAK","updated_at":"2026-05-25T13:38:22.587308Z"}}}